When you browse on this site, cookies collect data to enhance your experience and personalize the content and advertising you see.
Visit our Privacy Policy to learn more. By continuing to use the site, you agree to this use of cookies and data.
  • în România
  • Lista ţărilor
  • Pe 7 zile
  • Temperatura apei
  • Hartă satelitară
  • Meteo pe hartă
  • Widget-uri
  • user-avatar
    Intrare

    Meteo pe oră la Repnoe

    Astăzi, 19 Februarie, Marţi

    Timp Temperatura Precipitaţii Vânt Presiune Umiditate
    00:00 -11°C° 0 mm 6 m/s 747 mmHg 84%
    01:00 -12°C° 0 mm 5 m/s 748 mmHg 85%
    02:00 -12°C° 0 mm 5 m/s 748 mmHg 87%
    03:00 -13°C° 0 mm 5 m/s 748 mmHg 88%
    04:00 -13°C° 0 mm 5 m/s 749 mmHg 89%
    05:00 -14°C° 0 mm 4 m/s 749 mmHg 90%
    06:00 -14°C° 0 mm 4 m/s 750 mmHg 91%
    07:00 -14°C° 0 mm 4 m/s 750 mmHg 90%
    08:00 -14°C° 0 mm 4 m/s 751 mmHg 90%
    09:00 -13°C° 0 mm 3 m/s 752 mmHg 90%
    10:00 -12°C° 0 mm 3 m/s 752 mmHg 89%
    11:00 -10°C° 0 mm 3 m/s 752 mmHg 88%
    12:00 -9°C° 0 mm 3 m/s 752 mmHg 87%
    13:00 -9°C° 0 mm 3 m/s 752 mmHg 86%
    14:00 -8°C° 0 mm 3 m/s 752 mmHg 85%
    15:00 -9°C° 0 mm 4 m/s 751 mmHg 84%
    16:00 -9°C° 0 mm 4 m/s 751 mmHg 86%
    17:00 -10°C° 0 mm 4 m/s 751 mmHg 87%
    18:00 -11°C° 0 mm 4 m/s 751 mmHg 89%
    19:00 -11°C° 0 mm 4 m/s 750 mmHg 89%
    20:00 -12°C° 0 mm 5 m/s 750 mmHg 89%
    21:00 -11°C° 0 mm 5 m/s 750 mmHg 89%
    22:00 -11°C° 0 mm 5 m/s 749 mmHg 90%
    23:00 -11°C° 0 mm 5 m/s 749 mmHg 90%

    Mâine, 20 Februarie, Miercuri

    Timp Temperatura Precipitaţii Vânt Presiune Umiditate
    00:00 -11°C° 0 mm 5 m/s 749 mmHg 91%
    01:00 -11°C° 0 mm 5 m/s 748 mmHg 90%
    02:00 -11°C° 0 mm 5 m/s 748 mmHg 90%
    03:00 -11°C° 0 mm 5 m/s 748 mmHg 89%
    04:00 -11°C° 0 mm 5 m/s 748 mmHg 89%
    05:00 -11°C° 0 mm 5 m/s 747 mmHg 88%
    06:00 -11°C° 0 mm 5 m/s 746 mmHg 87%
    07:00 -11°C° 0 mm 6 m/s 746 mmHg 86%
    08:00 -10°C° 0 mm 6 m/s 746 mmHg 85%
    09:00 -10°C° 0 mm 6 m/s 745 mmHg 85%
    10:00 -9°C° 0 mm 7 m/s 745 mmHg 83%
    11:00 -7°C° 0 mm 7 m/s 745 mmHg 82%
    12:00 -6°C° 0 mm 7 m/s 744 mmHg 80%
    13:00 -6°C° 0 mm 7 m/s 744 mmHg 80%
    14:00 -4°C° 0 mm 7 m/s 744 mmHg 80%
    15:00 -4°C° 0 mm 7 m/s 743 mmHg 80%
    16:00 -4°C° 0 mm 7 m/s 743 mmHg 83%
    17:00 -4°C° 0 mm 6 m/s 743 mmHg 86%
    18:00 -4°C° 0 mm 6 m/s 743 mmHg 88%
    19:00 -4°C° 0.1 mm 6 m/s 742 mmHg 89%
    20:00 -4°C° 0.1 mm 6 m/s 742 mmHg 90%
    21:00 -3°C° 0.1 mm 6 m/s 742 mmHg 91%
    22:00 -3°C° 0.1 mm 6 m/s 742 mmHg 92%
    23:00 -3°C° 0.1 mm 6 m/s 741 mmHg 92%

    Poimâine, 21 Februarie, Joi

    Timp Temperatura Precipitaţii Vânt Presiune Umiditate
    00:00 -3°C° 0.1 mm 6 m/s 741 mmHg 93%
    01:00 -2°C° 0.1 mm 5 m/s 741 mmHg 93%
    02:00 -2°C° 0.1 mm 5 m/s 740 mmHg 94%
    03:00 -2°C° 0.1 mm 4 m/s 740 mmHg 95%
    04:00 -2°C° 0 mm 4 m/s 740 mmHg 95%
    05:00 -2°C° 0 mm 4 m/s 739 mmHg 95%
    06:00 -2°C° 0 mm 4 m/s 739 mmHg 95%
    07:00 -2°C° 0 mm 4 m/s 739 mmHg 95%
    08:00 -2°C° 0 mm 5 m/s 738 mmHg 96%
    09:00 -2°C° 0 mm 5 m/s 738 mmHg 96%
    10:00 -2°C° 0.1 mm 5 m/s 738 mmHg 96%
    11:00 -2°C° 0.1 mm 5 m/s 737 mmHg 96%
    12:00 -2°C° 0.1 mm 5 m/s 737 mmHg 97%
    13:00 -2°C° 0.4 mm 5 m/s 736 mmHg 96%
    14:00 -1°C° 0.4 mm 5 m/s 736 mmHg 95%
    15:00 -1°C° 0.4 mm 5 m/s 736 mmHg 94%
    16:00 -4°C° 0.1 mm 5 m/s 736 mmHg 91%
    17:00 -5°C° 0.1 mm 5 m/s 736 mmHg 89%
    18:00 -5°C° 0.1 mm 4 m/s 736 mmHg 87%
    19:00 -5°C° 0.1 mm 4 m/s 736 mmHg 88%
    20:00 -6°C° 0.1 mm 5 m/s 736 mmHg 90%
    21:00 -5°C° 0.1 mm 5 m/s 736 mmHg 91%
    22:00 -6°C° 0.3 mm 6 m/s 736 mmHg 92%
    23:00 -6°C° 0.3 mm 6 m/s 736 mmHg 92%

    22 Februarie, Vineri

    Timp Temperatura Precipitaţii Vânt Presiune Umiditate
    00:00 -7°C° 0.3 mm 7 m/s 736 mmHg 92%
    01:00 -6°C° 0.3 mm 6 m/s 736 mmHg 92%
    02:00 -8°C° 0.3 mm 6 m/s 736 mmHg 91%
    03:00 -8°C° 0.3 mm 6 m/s 736 mmHg 91%
    04:00 -8°C° 0.1 mm 7 m/s 737 mmHg 90%
    05:00 -8°C° 0.1 mm 7 m/s 737 mmHg 90%
    06:00 -8°C° 0.1 mm 7 m/s 737 mmHg 89%
    07:00 -9°C° 0 mm 7 m/s 738 mmHg 88%
    08:00 -9°C° 0 mm 7 m/s 738 mmHg 87%
    09:00 -11°C° 0 mm 7 m/s 739 mmHg 86%
    10:00 -11°C° 0 mm 7 m/s 739 mmHg 86%
    11:00 -11°C° 0 mm 7 m/s 740 mmHg 85%
    12:00 -10°C° 0 mm 6 m/s 740 mmHg 85%
    13:00 -11°C° 0.1 mm 6 m/s 741 mmHg 84%
    14:00 -11°C° 0.1 mm 6 m/s 741 mmHg 84%
    15:00 -11°C° 0.1 mm 6 m/s 742 mmHg 84%
    16:00 -12°C° 0.1 mm 5 m/s 742 mmHg 85%
    17:00 -13°C° 0.1 mm 5 m/s 743 mmHg 86%
    18:00 -14°C° 0.1 mm 4 m/s 744 mmHg 87%
    19:00 -14°C° 0 mm 4 m/s 744 mmHg 88%
    20:00 -15°C° 0 mm 4 m/s 745 mmHg 89%
    21:00 -15°C° 0 mm 3 m/s 745 mmHg 91%
    22:00 -15°C° 0 mm 3 m/s 746 mmHg 92%
    23:00 -16°C° 0 mm 3 m/s 746 mmHg 93%

    23 Februarie, Sâmbătă

    Timp Temperatura Precipitaţii Vânt Presiune Umiditate
    00:00 -17°C° 0 mm 3 m/s 746 mmHg 94%
    01:00 -17°C° 0 mm 3 m/s 747 mmHg 95%
    02:00 -17°C° 0 mm 3 m/s 747 mmHg 95%
    03:00 -17°C° 0 mm 2 m/s 748 mmHg 95%
    04:00 -17°C° 0 mm 2 m/s 748 mmHg 95%
    05:00 -17°C° 0 mm 2 m/s 749 mmHg 96%
    06:00 -17°C° 0 mm 2 m/s 749 mmHg 96%
    07:00 -17°C° 0 mm 2 m/s 750 mmHg 95%
    08:00 -16°C° 0 mm 2 m/s 750 mmHg 95%
    09:00 -16°C° 0 mm 2 m/s 751 mmHg 94%
    10:00 -15°C° 0 mm 2 m/s 751 mmHg 92%
    11:00 -14°C° 0 mm 2 m/s 752 mmHg 90%
    12:00 -13°C° 0 mm 2 m/s 752 mmHg 87%
    13:00 -12°C° 0 mm 2 m/s 752 mmHg 86%
    14:00 -12°C° 0 mm 2 m/s 752 mmHg 85%
    15:00 -10°C° 0 mm 2 m/s 753 mmHg 83%
    16:00 -10°C° 0 mm 1 m/s 753 mmHg 85%
    17:00 -10°C° 0 mm 1 m/s 753 mmHg 87%
    18:00 -11°C° 0 mm 1 m/s 754 mmHg 90%
    19:00 -12°C° 0 mm 1 m/s 754 mmHg 91%
    20:00 -12°C° 0 mm 1 m/s 755 mmHg 92%
    21:00 -12°C° 0 mm 1 m/s 755 mmHg 93%
    22:00 -15°C° 0 mm 2 m/s 755 mmHg 93%
    23:00 -15°C° 0 mm 2 m/s 756 mmHg 94%

    24 Februarie, Duminică

    Timp Temperatura Precipitaţii Vânt Presiune Umiditate
    00:00 -15°C° 0 mm 2 m/s 756 mmHg 94%
    01:00 -16°C° 0 mm 2 m/s 756 mmHg 94%
    02:00 -16°C° 0 mm 2 m/s 756 mmHg 95%
    03:00 -16°C° 0 mm 2 m/s 756 mmHg 95%
    04:00 -16°C° 0 mm 2 m/s 756 mmHg 96%
    05:00 -16°C° 0 mm 2 m/s 756 mmHg 96%
    06:00 -17°C° 0 mm 2 m/s 756 mmHg 96%
    07:00 -17°C° 0 mm 3 m/s 757 mmHg 96%
    08:00 -16°C° 0 mm 3 m/s 757 mmHg 96%
    09:00 -16°C° 0 mm 3 m/s 757 mmHg 96%
    10:00 -15°C° 0 mm 3 m/s 758 mmHg 95%
    11:00 -14°C° 0 mm 3 m/s 758 mmHg 94%
    12:00 -13°C° 0 mm 3 m/s 758 mmHg 93%
    13:00 -13°C° 0 mm 3 m/s 758 mmHg 92%
    14:00 -12°C° 0 mm 3 m/s 758 mmHg 91%
    15:00 -12°C° 0 mm 3 m/s 758 mmHg 90%
    16:00 -13°C° 0 mm 3 m/s 758 mmHg 91%
    17:00 -13°C° 0 mm 3 m/s 758 mmHg 92%
    18:00 -13°C° 0 mm 2 m/s 758 mmHg 93%
    19:00 -14°C° 0 mm 2 m/s 758 mmHg 93%
    20:00 -14°C° 0 mm 2 m/s 759 mmHg 94%
    21:00 -15°C° 0 mm 2 m/s 759 mmHg 94%
    22:00 -15°C° 0 mm 2 m/s 759 mmHg 94%
    23:00 -15°C° 0 mm 2 m/s 759 mmHg 94%
    Arată mai mult